1st Responders/1st Detectors/Storm Spotters Weather Summary for Allen County, KY

Forecast Maps


Reg. NEXRAD Animation


National Fire Danger: Day 1 & 2 Map

Current NWS Watch/Warnings

SPC Convective Day 1 Outlook


Day 2 Outlook

(Click images to enlarge|Page will refresh every 5 minutes)
UK Ag. Weather Center Desktop Severe Weather Service[HERE]
Allen County, KY Hazardous Weather Outlook Webcast
(9 AM to 9 PM Mon-Fri)
[Fast]
[Dial-up]


UKAWC 1st Detectors/1st Responders Precision Weather Forecast For ALLEN County, Kentucky
(based on the NWS County Digital Forecast)

ISSUED AT 19:00 UTC ON SUNDAY OCT 22 2017
DAY SUNDAY
CDT 3HR 3P 4P 5P 6P
MAX/MIN -- -- -- 81°
TEMP 81° 79° 77° 74°
SKY COVER 53% 54% 62% 69%
Clouds
DEW PT 61° 61° 61° 61°
RH 50% 51% 56% 63%
POP 12HR -- -- -- --
RAIN/SNOW (liq.equ) -- -- -- --
SNOWFALL -- -- -- --
WIND SPEED(MPH) 14 13 9 8
WIND Gust(MPH) 24 24 23 15
WIND DIR S S S S
DEW -- -- -- --
HeatIndex 81 81 77 74
Rain Showers -- -- -- Slight Chance
Fog -- -- -- --
WIND CHILL -- -- -- --
SPRAY COND
DRY COND
LIVESTOCK COLDSTRESS
LIVESTOCK HEATSTRESS 74.89 73.56 72.60 70.91



DAY MONDAY TUESDAY WEDNESDAY THURSDAY FRIDAY SATURDAY
CDT 6HR 7P 8P 9P 10P 11P MIDN 1A 2A 3A 4A 5A 6A 7A 8A 9A 10A 11A NOON 1P 2P 3P 4P 5P 6P 7P 8P 9P 10P 11P MIDN 1A 2A 4A 7A 10A 1P 4P 7P 1A 7A 1P 7P 1A 7A 1P 7P 1A 7A 1P 7P 1A 7A 1P 7P
MAX/MIN -- -- -- -- -- -- -- -- -- -- -- -- 59° -- -- -- -- -- -- -- -- -- -- 65° -- -- -- -- -- -- -- -- -- 47° -- -- 58° -- -- 38° 56° -- -- 38° 65° -- -- 47° 67° -- -- 41° 58° --
TEMP 72° 70° 68° 67° 67° 67° 67° 67° 67° 65° 63° 61° 61° 59° 63° 65° 65° 65° 63° 65° 65° 63° 61° 58° 58° 56° 56° 56° 54° 52° 52° 52° 50° 47° 56° 58° 58° 49° 43° 38° 54° 49° 45° 40° 65° 56° 52° 49° 67° 58° 47° 43° 58° 49°
SKY COVER 77% 79% 84% 86% 88% 92% 94% 95% 96% 96% 96% 96% 99% 99% 98% 98% 97% 96% 95% 94% 92% 91% 85% 73% 67% 61% 48% 42% 43% 43% 44% 43% 42% 39% 13% 42% 51% 57% 38% 28% 44% 40% 16% 6% 5% 7% 9% 19% 53% 58% 69% 66% 59% 55%
Clouds
DEW PT 61° 61° 61° 63° 63° 63° 63° 63° 63° 63° 61° 61° 59° 58° 58° 58° 58° 58° 58° 56° 56° 56° 54° 54° 52° 52° 50° 49° 49° 47° 45° 45° 45° 43° 43° 40° 36° 38° 36° 34° 34° 36° 36° 36° 43° 45° 43° 45° 49° 47° 40° 38° 38° 38°
RH 70% 75% 78% 84% 83% 86% 89% 87% 87% 93% 92% 96% 96% 96% 87% 75% 75% 77% 80% 75% 74% 75% 78% 83% 83% 83% 80% 80% 79% 79% 79% 76% 79% 89% 64% 49% 45% 66% 75% 84% 44% 62% 73% 85% 44% 63% 73% 86% 52% 66% 79% 85% 49% 68%
POP 12HR 15% -- -- -- -- -- -- -- -- -- -- -- 95% -- -- -- -- -- -- -- -- -- -- -- 85% -- -- -- -- -- -- -- -- 25% -- -- -- 9% -- 3% -- 2% -- 2% -- 2% -- 5% -- 26% -- 38% -- 28%
RAIN/SNOW (liq.equ) 0.00in -- -- -- -- -- 0.23in -- -- -- -- -- 0.89in -- -- -- -- -- 0.59in -- -- -- -- -- 0.18in -- -- -- -- -- 0.12in -- -- 0.00in -- 0.00in -- 0.00in -- -- -- -- -- -- -- -- -- -- -- -- -- -- -- --
SNOWFALL 0in -- -- -- -- -- 0in -- -- -- -- -- 0in -- -- -- -- -- 0in -- -- -- -- -- 0in -- -- -- -- -- 0in -- -- 0in -- 0in -- 0in -- -- -- -- -- -- -- -- -- -- -- -- -- -- -- --
WIND SPEED(MPH) 7 8 8 9 8 9 8 7 7 6 6 6 6 6 6 7 7 7 7 7 8 8 8 7 7 7 7 7 7 6 6 6 6 6 13 13 10 7 6 6 10 7 5 5 8 7 8 7 10 7 6 6 7 6
WIND DIR SE SE S S S S S S S S S W NW NW NW NW NW W W W W W W W W W W W W W W W W W W W W W W W W SW SW S S S S S SW SW W W W NW
HeatIndex 72 70 68 67 67 67 67 67 67 65 63 61 61 59 63 65 65 65 63 65 65 63 61 58 58 56 56 56 54 52 52 52 50 47 56 58 58 49 39 33 54 49 42 38 65 56 52 49 67 58 47 39 58 49
Rain Showers Chance Chance Chance Chance Likely Definite Definite Definite Definite -- -- -- -- -- -- -- Definite Definite Likely Likely Likely Likely Likely Likely Chance Chance Chance Chance Chance Chance Slight Chance Slight Chance Slight Chance -- -- -- -- -- -- -- -- -- -- -- -- -- -- -- Chance Chance Chance Chance Chance Slight Chance
Fog -- -- -- -- -- -- -- -- -- Patchy Patchy Patchy Patchy Patchy Patchy Patchy -- -- -- -- -- -- -- -- -- -- -- -- -- -- -- -- -- -- -- -- -- -- -- -- -- -- -- -- -- -- -- -- -- -- -- -- -- --
WIND CHILL -- -- -- -- -- -- -- -- -- -- -- -- -- -- -- -- -- -- -- -- -- -- -- -- -- -- -- -- -- -- -- -- -- -- -- -- -- -- 39° 34° -- -- 43° 37° -- -- -- -- -- -- -- 39° -- --
SPRAY COND
DRY COND
LIVESTOCK COLDSTRESS
LIVESTOCK HEATSTRESS 69.82 68.46 66.89 66.28 66.23 66.37 66.50 66.41 66.41 64.76 62.82 60.95 60.95 59.00 62.70 64.15 64.15 64.22 62.54 64.15 64.11 62.42 60.73 58.07 58.07 56.26 56.31 56.31 54.55 52.79 52.79 52.90 51.02 47.71 56.55 58.22 58.24 50.83 45.17 39.83 55.48 51.05 47.05 41.55 63.09 56.57 53.01 49.75 64.84 58.15 48.36 44.30 58.22 50.72

Click on individual weather variable above in left-hand column (ie., TEMP, RH, QPF 12HR) to view state forecast maps






NWS 48 Hr. Forecast Maps,

Regional Hourly Observations For ALLEN County, Kentucky
Issued at 300 PM EDT SUN OCT 22 2017
WESTERN AND SOUTH CENTRAL KENTUCKY
  
CITY           SKY/WX    TMP DP  RH WIND       PRES   REMARKS
PADUCAH        CLOUDY    76  60  57 S8        29.97F                  
HENDERSON      CLOUDY    80  61  52 S18G25    30.00F                  
OWENSBORO      CLOUDY    78  61  55 S21G30    30.02F                  
HOPKINSVILLE   NOT AVBL                                               
BOWLING GREEN  MOSUNNY   81  60  48 S16       30.08F                  
GLASGOW        PTSUNNY   79  58  48 SE9       30.10F                  


Current NOWCAST not available:
Nowcasts are not issued routinely during fair weather. Only when
precipitation or other significant weather is occuring in this county will these
forecasts be issued. Currently, there is no short term forecast in effect.


Fire Weather Forecast For ALLEN County, KY
Provided by the National Weather Service:

Issued at: Sun Oct 22 15:05:01 EDT 2017

307 AM EDT Sun Oct 22 2017 /207 AM CDT Sun Oct 22 2017/

                      Today        Tonight      Mon          

CLOUD COVER           PCldy        MCldy        Cloudy       
PRECIP TYPE           NONE         showers      showers      
CHANCE PRECIP (%)     0            100          90           
TEMP (24H TREND)      81 (+6)      57 (-1)      64           
RH % (24H TREND)      51 (+10)     100 (+15)    72           
20FTWND-VAL/AM(MPH)   S  9 G25                  Lgt/Var      
20FTWND-RDG/PM(MPH)   S 10 G21     S  6         W  6         
PRECIP AMOUNT         0.00         0.91         0.80         
MIXING HGT(FT-AGL/MSL)4903                      2181         
TRANSPORT WND (MPH)   S 25                      NW 15        
VENT RATE (KT-FT)     104344                    33264        
DISPERSION            Excellent                 Marginal     
DSI                   SLGT UNSTBL  SLGT UNSTBL  STBL         
LAL                   1            1            1            
HAINES INDEX          3            3            3            
ADI EARLY             54 GEN GOOD  20 GEN POOR  12 POOR      
ADI LATE              72 GOOD      18 GEN POOR  29 FAIR      
MAX LVORI EARLY       5            4            6            
MAX LVORI LATE        1            7            4            

REMARKS...ADI IS ATMOSPHERIC DISPERSION INDEX BY LAVDAS.        
LVORI IS LOW VISIBILITY OCCURRENCE RISK INDEX.

.TUESDAY...Partly cloudy. A 50 percent chance of rain showers.
Lows in the mid 40s. Highs in the upper 50s. West winds around
5 mph. 
.WEDNESDAY...Partly cloudy. Lows in the upper 30s. Highs in the
mid 50s. West winds around 5 mph. 
.THURSDAY...Mostly clear. Lows in the upper 30s. Highs in the mid
60s. South winds up to 10 mph. 
.FRIDAY...Partly cloudy. A 40 percent chance of rain showers.
Lows in the upper 40s. Highs in the mid 60s. Southwest winds 5 to
10 mph. 
.SATURDAY...Mostly cloudy. A 40 percent chance of rain showers.
Lows in the lower 40s. Highs in the mid 50s. West winds 5 to
10 mph. 

SPC's Fire Weather Web Tool (Excellent!), SPC's Fire Weather Outlooks, NWS Fire Weather WEB, Fire Danger Class Map,
Keetch-Byram Drought Index, ROMAN Web, Haines Index ,
WFAS's 10-hr Dead Fuel Moist., WFAS's 100-hr Dead Fuel Moist., Probablity of Ignition, Visual blackness Map, Palmer Drought Index, HPC's Rainfall Forecast Maps


Hazardous Weather Outlook For ALLEN County, Kentucky
311 AM EDT Sun Oct 22 2017 /211 AM CDT Sun Oct 22 2017/

 DAY ONE  Today and Tonight.

Widespread showers are expected tonight with the potential for
locally heavy rain.

 DAYS TWO THROUGH SEVEN  Monday through Saturday.

Locally heavy rain will be possible Monday, especially in the morning
hours. Total rainfall amounts from Sunday night through Monday
afternoon are expected to be between 1 and 2 inches, with locally
higher amounts possible across central Kentucky. 

 SPOTTER INFORMATION STATEMENT  

Spotters are encouraged to report rainfall amounts.

Latest ALLEN County, Kentucky Watches, Warnings and Advisories.
Additional Drought Info.: UKAWC Drought Page, Kentucky Drought Watch


7-Day Forecast For ALLEN County, KY

TODAY
Partly cloudy. Highs in the lower 80s. South winds 5 to 15 mph with gusts to around 30 mph.

TONIGHT
Showers. Lows around 60. South winds 5 to 15 mph. Chance of showers near 100 percent.

MONDAY
Showers. Highs in the mid 60s. West winds 5 to 10 mph. Chance of showers 90 percent.

MONDAY NIGHT
Partly cloudy with a 30 percent chance of showers. Lows in the upper 40s. West winds 5 to 10 mph.

TUESDAY
Partly cloudy. Highs in the upper 50s. West winds 10 to 15 mph.

TUESDAY NIGHT
Partly cloudy. Lows in the upper 30s.

WEDNESDAY
Partly cloudy. Highs in the mid 50s.

WEDNESDAY NIGHT
Mostly clear. Lows in the upper 30s.

THURSDAY
Mostly sunny. Highs in the mid 60s.

THURSDAY NIGHT
Mostly clear. Lows in the upper 40s.

FRIDAY
Partly cloudy with a 30 percent chance of showers. Highs in the upper 60s.

FRIDAY NIGHT
Partly cloudy with a 40 percent chance of showers. Lows in the lower 40s.

SATURDAY
Partly cloudy with a 40 percent chance of showers. Highs in the upper 50s.

Ag Weather Center, Department of Biosystems & Agricultural Engineering, University of Kentucky